Skip Page Navigation
NASA JPL Caltech
NASA Logo - Jet Propulsion Laboratory + View the NASA Portal
+ Center for Near-Earth Object Studies
JPL Home Earth Solar System Stars & Galaxies Technology
JPL Solar System Dynamics
BODIES ORBITS EPHEMERIDES TOOLS PHYSICAL DATA DISCOVERY FAQ SITE MAP
JPL Small-Body Database Browser
Search: [ help ]  
213206 (2000 TB35)
Classification: Main-belt Asteroid          SPK-ID: 2213206
Ephemeris | Orbit Diagram | Orbital Elements | Mission Design | Physical Parameters | Discovery Circumstances ]

[ show orbit diagram ]
Orbital Elements at Epoch 2459200.5 (2020-Dec-17.0) TDB
Reference: JPL 14 (heliocentric ecliptic J2000)
 Element Value Uncertainty (1-sigma)   Units 
e .1379151773662385 6.4147e-08  
a 3.054629114830422 2.9633e-08 au
q 2.633349398670508 2.0504e-07 au
i 10.177990644 7.2164e-06 deg
node 195.4040450952248 3.1867e-05 deg
peri 145.2229640249878 4.316e-05 deg
M 313.5930646154636 2.8929e-05 deg
tp 2459451.871794718698
(2021-Aug-25.37179472)
0.00015822 TDB
period 1950.006940748891
5.34
2.8375e-05
7.769e-08
d
yr
n .1846147275054024 2.6864e-09 deg/d
Q 3.475908830990335 3.372e-08 au
  Orbit Determination Parameters
   # obs. used (total)      228  
   data-arc span      7230 days (19.79 yr)  
   first obs. used      2000-10-01  
   last obs. used      2020-07-18  
   planetary ephem.      DE441  
   SB-pert. ephem.      SB441-N16  
   condition code      0  
   norm. resid. RMS      .52713  
   source      ORB  
   producer      Otto Matic  
   solution date      2021-Apr-13 23:41:47  

Additional Information
 Earth MOID = 1.63164 au 
 Jupiter MOID = 2.01417 au 
 T_jup = 3.197 
[ show covariance matrix ]

Ephemeris | Orbit Diagram | Orbital Elements | Mission Design | Physical Parameters | Discovery Circumstances ]

Physical Parameter Table
Parameter Symbol Value Units Sigma Reference Notes
absolute magnitude H 15.94   n/a E2021B55  

213206 (2000 TB35)          Discovered 2000-Oct-06 by LONEOS at Anderson Mesa
Reference: 20090509/Numbers.arcLast Updated: 2009-05-11

Alternate Designations
 2000 TB35 = 2005 QP174 
Ephemeris | Orbit Diagram | Orbital Elements | Mission Design | Physical Parameters | Discovery Circumstances ]
ABOUT SSD CREDITS/AWARDS PRIVACY/COPYRIGHT GLOSSARY LINKS
FirstGov 2021-May-12 00:25 UT
(server date/time)  
NASA Home Page
Site Manager:   Ryan S. Park
Webmaster  Alan B. Chamberlin